Lexington Weather

Lexington, Massachusetts, USA

36°F
1/27/2020 6:29am 
  • Lexington Conditions: Partly cloudy
  • Temperature: 36.0°F / 2.2°CWarmer 0.8°F than last hour.
  • Dew Point: 31.3°FIncreased 0.7°Fsince last hour.
  • Relative Humidity: 83
  • Wind: Wind from W W 1 mph, 10-min avg: 2 mph, gust: 5 mph
  • Barometer: 29.57 in Steady
  • Visibility: 10 miles
  • Rain Today: 0.00 in
  •   

Regional Weather Roundup
for Boston / Norton, MA

        
000
ASUS41 KBOX 252210
RWRBOX

REGIONAL WEATHER ROUNDUP
NATIONAL WEATHER SERVICE BOSTON/NORTON MA
500 PM EST SAT JAN 25 2020

NOTE:  "FAIR" INDICATES FEW OR NO CLOUDS BELOW 12,000 FEET WITH NO 
SIGNIFICANT WEATHER AND/OR OBSTRUCTIONS TO VISIBILITY.

MAZALL-252300-
EASTERN MASSACHUSETTS
  
CITY           SKY/WX    TMP DP  RH WIND       PRES   REMARKS
BOSTON         CLOUDY    45  39  79 E17       29.99F                  
BEVERLY        CLOUDY    44  39  82 E16       30.00F                  
LAWRENCE       CLOUDY    41  37  86 E12G23    30.02F                  
BEDFORD        LGT RAIN  43  39  86 E18       29.97F FOG              
BLUE HILL        N/A     41  41 100 E20G37    29.94F WCI  32          
NORWOOD        CLOUDY    47  41  80 E15G23    29.96F                  
MARSHFIELD     CLOUDY    45  45 100 E14G23    29.98F FOG              
PLYMOUTH       CLOUDY    44  42  93 E17G26    29.97F                  
TAUNTON        LGT RAIN  45  42  89 E10G20    29.94F                  
NEW BEDFORD    LGT RAIN  45  43  93 E18G29    29.93F FOG              
$$

MAZALL-252300-
CAPE COD AND THE ISLANDS
  
CITY           SKY/WX    TMP DP  RH WIND       PRES   REMARKS
FALMOUTH       CLOUDY    45  45 100 E22G32    29.96F                  
HYANNIS        LGT RAIN  46  43  89 E15G29    29.94F FOG              
CHATHAM        CLOUDY    46  43  89 E14G22    30.00F                  
PROVINCETOWN   CLOUDY    45  44  97 E17G29    29.99F                  
NANTUCKET      CLOUDY    46  44  93 E17       29.94F FOG              
MARTHAS VNYRD  LGT RAIN  45  44  97 E15       29.93F FOG              
$$
 
MAZALL-252300-
CENTRAL AND WESTERN MASSACHUSETTS
  
CITY           SKY/WX    TMP DP  RH WIND       PRES   REMARKS
WORCESTER      FOG       39  38  96 E16G26    29.90F VSB 1/4 WCI  30  
FITCHBURG      LGT RAIN  40  37  89 E6        29.97F FOG              
ORANGE         CLOUDY    40  36  86 E9        29.91F                  
SPRINGFIELD    LGT RAIN  43  39  87 E7        29.86F FOG              
WESTFIELD      RAIN      40  38  93 NE10      29.87F FOG              
NORTH ADAMS    LGT RAIN  39  34  82 E18G30    29.84F WCI  30          
PITTSFIELD     RAIN      38  34  85 NE10G21   29.79F FOG     WCI  31  
$$
 
RIZALL-252300-
RHODE ISLAND
  
CITY           SKY/WX    TMP DP  RH WIND       PRES   REMARKS
PROVIDENCE     LGT RAIN  45  43  93 E12       29.92F FOG              
NEWPORT        LGT RAIN  46  43  89 E15G26    29.89F FOG              
BLOCK ISLAND   LGT RAIN  45  44  97 E18G31    29.86F FOG              
SMITHFIELD     LGT RAIN  42  42 100 E14G20    29.92F FOG              
WESTERLY       CLOUDY    47  42  83 E20G32    29.87F HAZE             
$$
 
CTZALL-252300-
CONNECTICUT
  
CITY           SKY/WX    TMP DP  RH WIND       PRES   REMARKS
BRADLEY INTL   HVY RAIN  42  40  92 N5        29.85F FOG              
HARTFORD       LGT RAIN  45  42  89 N7        29.82F                  
BRIDGEPORT     HVY RAIN  43  42  97 E21G29    29.74F FOG              
DANBURY        HVY RAIN  43  42  97 N7        29.78F VSB 1            
GROTON         LGT RAIN  45  45 100 E22G32    29.83F FOG              
NEW HAVEN      LGT RAIN  46  44  93 E25G39    29.77F FOG              
CHESTER        LGT RAIN  48  48 100 SE13G23   29.80                   
MERIDEN        RAIN      47  45  93 VRB7      29.79F                  
WILLIMANTIC    RAIN      45  43  93 E10G18    29.87F FOG              
OXFORD         RAIN      43  42  97 NE12      29.76F FOG              
$$

MEZ002-015-021-024-NHZ003-005-008-011-012-014-VTZ005-008-252300-
NORTHERN NEW ENGLAND
  
CITY           SKY/WX    TMP DP  RH WIND       PRES   REMARKS
PORTLAND ME    CLOUDY    39  35  86 E21       30.12F WCI  29          
BANGOR ME      CLOUDY    36  30  79 E9        30.23F WCI  29          
CONCORD NH     CLOUDY    37  35  92 E8        30.03F WCI  31          
MANCHESTER NH  CLOUDY    40  37  89 E9G23     30.00F                  
NASHUA NH      LGT RAIN  40  40 100 E10G21    30.01F FOG              
PORTSMOUTH NH  CLOUDY    40  38  90 E16G26    30.04                   
JAFFREY NH     CLOUDY    37  35  92 MISG      29.94F FOG              
KEENE NH       LGT RAIN  39  36  89 VRB5      29.93F FOG              
BURLINGTON VT  LGT RAIN  37  32  82 E9        29.93F WCI  30          
MT. WASHINGTON BLWGSNOW  21  21 100 SE54G62     N/A  VSB 1/16WCI  -2  
$$

NYZ052-076-252300-
EASTERN NEW YORK
  
CITY           SKY/WX    TMP DP  RH WIND       PRES   REMARKS
ALBANY         RAIN      38  34  85 W8        29.86S FOG              
NEW YORK CITY  CLOUDY    47  43  86 SE8       29.73F                  
$$
 
ANZALL-252300-
MARINE OBSERVATIONS
  
STATION/POSITION TIME  TEMP    WIND        PRES    VSBY  WAVE
                       AIR SEA DIR/SP/G                  HT/PER
                 (UTC) (F)     (DEG/KT/KT) (MB)    (MI)  (FT/S)
BOSTON BUOY      2150   44 43   80/ 23/ 27 1014.6F         5/ 5
BUZZARDS BAY     2100   45      90/ 26/ 27 1013.9F
NANTUCKET SOUND  2140                      1014.7
MASS BAY-STELLWA 2104   43 42  110/ 19/ 23 1015.6F  1 7/8  7/ 6
ISLE OF SHOALS   2200   42      80/ 27/ 28 1016.1F
S OF BLOCK IS    2200      45                N/A           8/11
$$

......................KEY.........................
  SKY/WX - SKY CONDITION/PRESENT WEATHER
  TMP    - TEMPERATURE IN FAHRENHEIT
  DWPT   - DEWPOINT IN FAHRENHEIT
  RH     - RELATIVE HUMIDITY IN PERCENT
  WIND   - DIRECTION AND SPEED IN MPH
  PRES   - MEAN SEA LEVEL PRESSURE IN INCHES OF HG
  WCI    - WIND CHILL INDEX
  VSB    - VISIBILITY IN MILES
  HX     - HEAT INDEX
  TC     - TEMPERATURE IN CELSIUS
  VRB    - VARIABLE WIND DIRECTION
  N/A    - NOT AVAILABLE
  
      

Other recent Regional Weather Roundups

Mon Jan 27, 6:10am

Mon Jan 27, 6:00am

Mon Jan 27, 5:10am

Mon Jan 27, 5:00am

Mon Jan 27, 4:10am

Mon Jan 27, 4:01am

Mon Jan 27, 3:10am

Mon Jan 27, 3:00am

Mon Jan 27, 2:10am

Mon Jan 27, 2:00am

Mon Jan 27, 1:10am

Mon Jan 27, 1:00am

Mon Jan 27, 12:10am

Mon Jan 27, 12:00am

Sun Jan 26, 11:10pm

Sun Jan 26, 11:00pm

Sun Jan 26, 10:10pm

Sun Jan 26, 10:00pm

Sun Jan 26, 9:10pm

Sun Jan 26, 9:01pm

Sun Jan 26, 8:10pm

Sun Jan 26, 8:00pm

Sun Jan 26, 7:10pm

Sun Jan 26, 7:00pm

Sun Jan 26, 6:10pm

Sun Jan 26, 6:01pm

Sun Jan 26, 5:10pm

Sun Jan 26, 5:01pm

Sun Jan 26, 4:10pm

Sun Jan 26, 4:00pm

Sun Jan 26, 3:10pm

Sun Jan 26, 3:01pm

Sun Jan 26, 2:10pm

Sun Jan 26, 2:01pm

Sun Jan 26, 1:10pm

Sun Jan 26, 1:00pm

Sun Jan 26, 12:10pm

Sun Jan 26, 12:00pm

Sun Jan 26, 11:10am

Sun Jan 26, 11:01am

Sun Jan 26, 10:10am

Sun Jan 26, 10:01am

Sun Jan 26, 9:10am

Sun Jan 26, 9:00am

Sun Jan 26, 8:10am

Sun Jan 26, 8:00am

Sun Jan 26, 7:10am

Sun Jan 26, 7:00am

Sun Jan 26, 6:10am

Sun Jan 26, 6:00am

Sun Jan 26, 5:10am

Sun Jan 26, 5:00am

Sun Jan 26, 4:10am

Sun Jan 26, 4:01am

Sun Jan 26, 3:10am

Sun Jan 26, 3:01am

Sun Jan 26, 2:10am

Sun Jan 26, 2:00am

Sun Jan 26, 1:10am

Sun Jan 26, 1:00am

Sun Jan 26, 12:10am

Sun Jan 26, 12:00am

Sat Jan 25, 11:10pm

Sat Jan 25, 11:00pm

Sat Jan 25, 10:10pm

Sat Jan 25, 10:01pm

Sat Jan 25, 9:10pm

Sat Jan 25, 9:01pm

Sat Jan 25, 8:10pm

Sat Jan 25, 8:01pm

Sat Jan 25, 7:10pm

Sat Jan 25, 7:01pm

Sat Jan 25, 6:10pm

Sat Jan 25, 6:01pm

Sat Jan 25, 5:01pm

Sat Jan 25, 4:10pm

Sat Jan 25, 4:00pm

Sat Jan 25, 3:10pm

Sat Jan 25, 3:01pm

Sat Jan 25, 2:10pm

Sat Jan 25, 2:00pm

Sat Jan 25, 1:10pm

Sat Jan 25, 1:00pm

Sat Jan 25, 12:10pm

Sat Jan 25, 12:00pm

Sat Jan 25, 11:10am

Sat Jan 25, 11:00am

Sat Jan 25, 10:10am

Sat Jan 25, 10:00am

Sat Jan 25, 9:10am

Sat Jan 25, 9:00am

Sat Jan 25, 8:10am

Sat Jan 25, 8:01am

Sat Jan 25, 7:10am

Sat Jan 25, 7:00am

Sat Jan 25, 6:10am

Sat Jan 25, 6:00am

Sat Jan 25, 5:10am

Sat Jan 25, 5:00am

Sat Jan 25, 4:10am

Sat Jan 25, 4:00am

Sat Jan 25, 3:10am

Sat Jan 25, 3:00am

Sat Jan 25, 2:10am

Sat Jan 25, 2:01am

Sat Jan 25, 1:10am

Sat Jan 25, 1:00am

Sat Jan 25, 12:10am

Sat Jan 25, 12:00am

Fri Jan 24, 11:10pm

Fri Jan 24, 11:00pm

Fri Jan 24, 10:10pm

Fri Jan 24, 10:00pm

Fri Jan 24, 9:10pm

Fri Jan 24, 9:00pm

Fri Jan 24, 8:10pm

Fri Jan 24, 8:01pm

Fri Jan 24, 7:10pm

Fri Jan 24, 7:00pm

Fri Jan 24, 6:10pm

Fri Jan 24, 6:01pm

Fri Jan 24, 5:10pm

Fri Jan 24, 5:01pm

Fri Jan 24, 4:10pm

Fri Jan 24, 4:00pm

Fri Jan 24, 3:10pm

Fri Jan 24, 3:00pm

Fri Jan 24, 2:10pm

Fri Jan 24, 2:01pm

Fri Jan 24, 1:10pm

Fri Jan 24, 1:00pm

Fri Jan 24, 12:10pm

Fri Jan 24, 12:01pm

Fri Jan 24, 11:10am

Fri Jan 24, 11:01am

Fri Jan 24, 10:10am

Fri Jan 24, 10:00am

Fri Jan 24, 9:10am

Fri Jan 24, 9:00am

Fri Jan 24, 8:10am

Fri Jan 24, 8:01am

Fri Jan 24, 7:10am

Fri Jan 24, 7:00am

Meta data:

ID: 77813397-7cea-4c33-a6e0-e9cf420a1d4f
Link: https://api.weather.gov/products/77813397-7cea-4c33-a6e0-e9cf420a1d4f